Overview Statistics Trail Chart Weather Telemetry Raw packets
 

This is the latest recevied weather packets stored in our database for station/object WX5RP. If no packets are shown the sender has not sent any weather packets the latest 10 day(s).

<< 21 22 23 24 25 26 27 >>
Time Temp. Humidity Pressure Rain* Wind** Luminosity Snow
1777674316 23.33° C 19% 1017.3 hPa 0 mm - 741 W/m² -
1777673716 22.78° C 19% 1017.3 hPa 0 mm - 624 W/m² -
1777673116 23.33° C 18% 1017 hPa 0 mm - 470 W/m² -
1777672516 23.33° C 17% 1017.5 hPa 0 mm - 819 W/m² -
1777671916 22.78° C 18% 1017.5 hPa 0 mm - 549 W/m² -
1777671316 22.78° C 15% 1017.3 hPa 0 mm - 434 W/m² -
1777670716 22.78° C 16% 1017.8 hPa 0 mm - 629 W/m² -
1777670116 22.78° C 16% 1017.8 hPa 0 mm - 679 W/m² -
1777669515 22.78° C 16% 1017.6 hPa 0 mm - 841 W/m² -
1777668916 22.22° C 19% 1018 hPa 0 mm - 836 W/m² -
1777668316 22.22° C 17% 1017.7 hPa 0 mm - 795 W/m² -
1777667716 22.22° C 17% 1018.1 hPa 0 mm - 928 W/m² -
1777667115 22.22° C 18% 1018.5 hPa 0 mm - 983 W/m² -
1777666515 21.67° C 19% 1018.5 hPa 0 mm - 941 W/m² -
1777665916 21.67° C 19% 1018.2 hPa 0 mm - 636 W/m² -
1777665315 22.22° C 18% 1018.4 hPa 0 mm - 857 W/m² -
1777664717 21.67° C 20% 1018.5 hPa 0 mm - 943 W/m² -
1777664116 21.67° C 18% 1018.9 hPa 0 mm - 885 W/m² -
1777663515 21.67° C 20% 1019 hPa 0 mm - 873 W/m² -
1777662915 21.11° C 20% 1018.7 hPa 0 mm - 957 W/m² -
1777662317 21.67° C 19% 1019 hPa 0 mm - 975 W/m² -
1777661717 20.56° C 21% 1018.8 hPa 0 mm - 920 W/m² -
1777661117 20.56° C 22% 1019.1 hPa 0 mm - 831 W/m² -
1777660517 20.56° C 23% 1019.5 hPa 0 mm - 759 W/m² -
1777659917 20° C 21% 1019.7 hPa 0 mm - 760 W/m² -

* Rain latest hour (hover to see other rain measurements)
** Current wind speed in m/s (hover to see current wind gust speed)